Dewpoint
29 27 27 29 28 28 30 31 27 26 24 24 24 24 24 24 25 27 29 34 37 39 39 39 39 39 39 39 38 38 38 38 38 38 38 38 38 38 38 37 36 36 35 36
30 34 28 27 27 28 28 28 29 29 27 27 26 26 26 26 26 28 29 30 36 38 39 39 39 38 38 38 38 38 38 38 38 38 38 38 38 37 37 37 37 36 36 36
27 32 31 27 29 28 28 28 27 27 28 28 27 27 27 28 28 28 29 31 32 37 39 39 39 39 38 38 38 37 37 37 38 37 37 37 37 37 37 37 36 36 37 36
28 29 21 21 26 28 27 26 27 27 27 27 26 26 27 28 28 29 30 30 33 33 38 40 40 39 38 38 37 37 37 37 37 37 37 37 36 36 36 36 36 36 36 36
25 22 18 19 23 23 23 20 23 24 23 24 25 27 30 31 32 31 30 31 32 32 35 40 40 39 38 37 37 37 37 37 37 37 37 36 36 36 36 34 33 33 34 34
29 24 15 18 24 25 25 19 26 26 27 31 33 30 30 34 34 34 32 32 32 35 36 39 40 39 38 36 36 36 36 37 37 37 37 36 36 36 34 33 32 33 32 32
26 22 21 23 27 28 18 21 33 34 35 35 33 32 34 34 34 37 36 32 33 37 39 40 40 39 37 37 37 37 37 37 37 37 37 37 35 34 33 31 30 31 29 27
28 25 19 26 28 23 26 32 31 34 37 36 34 33 33 35 35 37 36 35 36 38 39 39 39 38 38 38 38 37 37 37 37 37 36 36 35 33 31 29 29 28 26 24
26 23 27 28 26 29 27 28 31 36 38 37 33 33 34 35 35 35 36 36 37 39 39 39 39 38 38 38 38 37 36 37 37 37 36 35 34 32 29 28 28 26 22 20
28 25 26 28 28 28 30 30 32 34 37 37 34 35 35 35 34 34 35 35 36 37 37 37 37 37 38 37 37 36 36 36 36 35 35 34 33 31 29 28 28 25 20 18
31 30 29 27 29 30 30 29 30 32 36 38 39 38 37 36 35 34 34 34 34 34 34 35 35 36 36 36 36 35 35 35 35 34 34 33 32 31 30 30 30 26 21 19
19 31 32 29 31 32 32 31 31 32 37 38 39 38 38 37 36 34 34 33 33 34 33 34 34 35 35 36 35 35 34 34 34 34 34 32 31 31 32 32 31 29 26 20
17 25 26 31 33 35 36 35 34 37 37 37 37 38 38 38 38 37 35 34 34 34 34 36 37 38 36 34 35 35 34 34 34 34 33 32 31 30 30 32 33 28 29 27
27 28 23 33 34 34 36 37 37 37 37 36 36 37 37 37 37 37 37 37 37 36 35 34 33 33 35 36 36 36 35 35 34 34 33 33 32 31 31 31 30 30 31 30
22 25 30 26 36 35 36 36 36 35 35 34 35 35 35 35 35 35 35 36 36 36 36 35 34 34 34 35 35 35 35 34 35 34 34 33 32 32 32 31 28 21 20 24
23 31 33 35 37 36 36 36 36 35 35 35 35 34 33 32 32 32 32 33 34 35 36 36 36 36 35 34 34 35 34 34 35 34 33 33 32 31 30 29 27 24 20 17
23 26 24 27 35 35 35 35 35 35 34 34 33 31 30 30 31 30 30 30 31 33 34 35 34 35 36 35 35 35 34 34 35 35 33 32 31 30 30 30 29 28 27 22
27 28 31 33 34 34 34 34 34 34 33 31 31 31 30 30 30 30 30 29 31 32 33 33 33 32 33 35 35 35 35 34 34 35 33 32 32 32 31 31 32 31 29 27
34 34 35 35 36 36 35 34 34 34 34 34 34 33 32 31 30 30 31 30 30 31 31 33 33 33 32 33 34 35 35 34 34 34 34 33 32 32 31 31 31 31 31 30
35 35 34 34 34 34 33 32 28 27 26 27 27 26 26 24 24 26 31 28 25 26 29 28 30 31 33 33 35 34 34 34 34 34 33 33 32 32 31 31 30 30 30 29
34 34 33 33 32 32 32 32 29 27 23 23 23 23 23 24 25 28 27 27 25 27 28 25 27 29 30 32 33 33 33 32 32 33 32 32 32 32 32 31 31 30 30 30
32 32 32 32 30 23 20 23 24 24 23 23 23 22 20 20 23 26 26 24 25 27 27 25 27 28 29 29 30 31 31 31 31 31 31 31 31 31 31 31 31 31 30 30
29 28 27 28 26 21 16 16 19 20 21 21 20 18 18 19 21 22 19 23 23 25 25 24 27 27 28 26 26 28 28 30 30 30 30 31 31 31 31 31 31 31 31 31
31 30 23 19 22 19 14 11 16 17 18 18 19 19 20 18 19 23 20 21 21 22 22 22 24 25 25 24 25 25 26 26 27 28 29 29 30 30 30 30 30 30 31 31
32 31 24 21 18 15 14 14 15 16 17 16 17 18 20 20 18 18 19 19 19 19 19 19 21 21 20 21 22 22 22 23 24 25 25 25 25 26 27 28 29 29 29 29
32 31 31 27 20 16 14 14 13 11 12 13 15 16 18 20 19 18 17 18 18 18 17 17 18 20 19 19 20 21 20 21 21 22 23 23 23 23 23 23 23 24 25 26
29 30 28 24 20 17 16 15 13 13 13 13 12 15 17 19 20 18 18 16 16 16 16 16 17 18 19 19 19 19 19 19 19 19 20 21 22 23 23 22 22 22 23 22
Wind_Speed
17 7 8 9 18 25 29 25 21 18 24 23 23 22 21 18 18 12 10 8 8 11 13 15 15 14 13 13 12 11 10 9 9 7 6 5 4 3 2 1 0 1 1 1
9 10 10 9 10 18 25 24 26 29 33 27 25 23 25 22 19 16 14 15 12 14 15 17 17 16 15 15 15 14 11 9 9 8 8 6 5 3 3 2 1 1 1 1
3 10 5 10 24 21 21 24 22 28 28 23 22 21 19 19 18 18 17 16 18 17 20 19 19 18 17 15 14 13 12 10 10 9 8 8 6 5 4 4 3 3 2 2
3 8 7 1 2 21 24 23 24 24 23 23 20 20 18 19 21 20 19 15 14 17 18 20 19 18 16 15 14 13 12 11 11 10 9 8 7 7 7 6 6 5 5 5
6 13 9 9 7 8 10 12 15 21 22 19 13 13 20 20 16 22 20 17 13 11 17 19 19 18 17 17 15 15 14 14 13 12 11 10 9 8 7 8 7 7 5 7
5 5 5 5 5 3 4 12 5 4 5 4 3 8 4 5 8 9 12 14 9 8 12 18 19 18 18 17 16 16 14 13 12 12 11 10 9 10 8 8 8 6 7 7
14 9 6 2 10 5 4 2 4 2 3 5 8 9 12 10 8 6 7 8 5 6 11 14 16 17 17 16 15 12 11 11 11 10 9 9 10 8 9 9 8 8 8 8
11 4 10 12 10 7 3 3 1 3 4 6 7 7 6 6 6 4 3 2 4 8 9 8 10 13 13 12 10 11 11 11 11 10 9 9 11 10 10 9 9 10 9 7
6 3 5 10 6 5 9 6 3 3 3 5 6 4 4 6 6 5 3 3 4 8 9 7 8 9 10 10 12 12 12 12 11 10 10 10 12 12 11 10 9 10 9 9
8 2 6 6 9 10 7 8 5 4 6 3 4 4 3 3 3 3 3 4 4 7 8 8 7 7 7 11 12 12 12 12 11 11 10 10 10 11 11 11 11 10 10 10
10 20 15 10 6 12 11 10 9 7 5 4 3 1 2 4 4 4 4 4 3 4 5 7 7 6 7 9 12 12 11 11 10 10 11 11 11 12 12 12 12 11 10 10
9 5 9 11 13 18 12 10 8 7 4 1 1 2 3 5 4 3 3 3 3 3 3 5 6 6 6 7 10 11 11 11 10 10 9 10 11 9 13 14 15 15 10 7
19 13 14 17 16 12 11 11 6 5 3 5 4 4 4 5 6 5 4 2 1 1 3 4 6 7 9 10 10 9 11 11 10 10 10 12 11 11 11 12 15 14 18 16
11 12 11 7 9 17 12 8 2 5 6 5 6 5 5 5 5 6 6 5 4 1 2 4 6 8 10 11 11 12 12 12 10 10 11 11 12 12 11 12 12 13 19 19
12 8 14 15 16 14 7 4 3 5 6 6 6 6 5 5 5 5 5 5 4 3 2 2 5 7 8 12 13 13 12 11 12 10 11 12 11 11 12 12 12 10 8 12
8 7 9 9 15 13 6 4 5 4 5 5 5 5 4 4 3 4 5 6 6 5 5 5 5 5 3 9 11 11 12 13 13 12 11 12 12 13 13 13 13 13 13 13
11 10 8 11 10 8 6 3 2 3 4 4 4 4 4 4 2 4 5 6 7 7 6 7 8 9 6 6 9 9 10 11 15 12 13 13 13 14 14 14 15 15 16 14
12 12 9 9 11 9 3 3 5 5 4 4 3 3 3 3 3 4 5 6 5 2 9 9 9 11 9 6 7 8 9 10 12 14 12 13 14 13 14 15 15 15 14 14
6 4 6 6 4 1 4 6 6 6 4 3 3 3 3 3 3 4 4 4 5 4 8 9 12 10 9 8 7 7 8 9 11 12 12 14 13 13 14 14 15 15 14 14
4 5 6 6 7 5 5 6 7 6 5 4 3 2 2 3 4 4 3 3 5 4 8 8 8 8 10 10 9 6 8 9 10 10 10 11 12 13 13 15 15 14 14 14
3 4 4 4 5 7 7 6 5 4 3 4 3 3 2 3 4 5 3 2 5 8 9 8 7 8 7 9 8 8 7 7 9 9 10 11 11 12 12 13 13 14 14 14
6 6 5 4 5 4 4 3 2 1 1 2 2 2 2 2 2 1 2 2 6 8 8 6 7 12 11 11 7 7 7 7 7 7 8 8 9 10 11 11 12 12 13 13
6 4 2 1 1 1 0 1 1 1 1 1 1 1 1 2 3 3 2 3 5 7 7 6 10 12 12 7 8 7 7 7 7 6 6 7 7 8 8 9 9 10 10 10
1 2 5 3 2 2 3 2 2 1 2 2 3 2 2 2 2 2 2 4 5 7 6 5 8 10 9 6 6 7 7 7 7 7 7 8 7 7 7 8 9 9 9 10
5 6 7 6 6 7 5 4 4 5 5 6 5 5 4 2 3 1 3 4 5 6 6 7 9 9 7 7 7 7 7 7 8 9 9 8 9 9 9 9 9 9 9 9
11 10 9 8 9 8 6 5 7 5 5 6 6 6 5 4 4 4 4 4 5 6 5 6 6 7 7 7 8 8 7 8 8 8 9 9 9 10 11 11 12 11 11 10
10 10 9 9 10 10 10 9 9 10 8 8 8 5 7 6 5 5 5 5 5 4 5 5 5 6 7 7 8 8 8 8 10 10 10 10 10 10 11 11 11 11 11 12
Wind_Direction
228 247 216 216 210 214 218 225 231 245 250 255 262 267 266 251 308 297 290 264 225 208 195 189 187 184 180 173 169 167 166 167 171 170 169 169 178 187 177 240 84 359 0 76
230 237 243 238 222 218 229 227 240 247 259 264 270 277 277 276 278 275 273 263 239 218 208 201 193 191 184 178 175 172 176 178 173 177 174 183 185 193 194 185 206 231 183 37
201 179 197 251 235 228 228 227 234 239 248 259 264 266 270 280 279 274 265 254 241 217 213 208 201 193 191 185 177 178 179 180 182 183 186 186 189 187 198 186 177 171 151 156
153 146 224 266 44 223 235 242 242 251 260 263 272 280 285 277 275 272 266 259 248 238 211 208 201 190 184 182 182 183 184 184 186 190 192 185 189 196 177 179 179 163 137 123
193 207 268 270 189 177 196 255 238 246 256 264 278 291 278 266 271 259 256 247 242 241 221 199 196 184 181 179 181 186 190 188 191 190 188 190 194 184 166 166 162 160 149 163
178 251 233 58 126 141 146 278 152 212 247 259 238 263 298 2 343 314 278 250 239 234 208 192 186 177 180 180 185 194 192 190 189 187 187 192 190 176 179 179 171 161 176 187
234 241 269 115 133 130 270 345 118 175 262 274 255 275 316 319 319 317 307 269 226 209 192 185 174 175 181 178 189 184 176 175 180 179 179 167 173 174 171 169 173 188 187 198
220 236 255 126 132 214 61 80 106 227 268 275 293 303 308 327 340 346 353 342 183 166 165 143 153 171 170 170 157 157 166 172 174 178 166 162 177 173 174 178 186 197 198 196
233 231 76 196 252 292 262 283 289 286 326 300 301 303 335 348 3 25 47 109 134 123 121 131 158 166 159 162 160 159 168 175 177 179 176 185 178 171 174 184 193 200 205 205
319 348 298 287 271 260 264 261 277 302 312 308 294 327 341 31 48 44 55 82 108 133 136 138 149 152 152 157 164 169 177 180 181 184 184 186 179 175 178 188 199 207 207 214
268 277 298 284 25 355 305 267 265 266 269 281 283 54 64 77 74 77 85 91 103 113 123 133 145 148 142 166 170 179 185 185 185 191 191 189 186 184 191 201 207 212 214 212
271 1 304 306 342 337 324 311 278 242 206 120 339 91 82 80 79 88 91 104 94 72 108 131 149 157 163 179 191 190 190 185 192 189 193 187 184 193 213 216 218 233 251 224
277 344 313 296 301 350 328 327 300 214 179 141 85 81 73 84 65 77 77 82 77 182 203 191 201 202 186 188 191 200 197 188 191 196 192 189 190 195 207 223 229 228 232 233
301 328 309 316 328 324 329 335 47 100 100 104 99 78 75 80 69 60 47 23 10 328 229 214 211 221 203 193 196 199 197 195 195 199 196 198 198 200 205 209 218 229 233 232
270 274 299 294 304 317 317 291 195 138 114 96 86 81 68 70 56 42 29 15 4 1 340 289 255 252 210 202 204 206 200 196 199 202 200 202 203 206 212 217 224 233 219 220
281 298 323 290 288 296 281 257 230 166 142 131 117 93 71 60 44 30 22 9 1 355 351 340 318 325 232 211 209 209 209 209 201 203 201 207 204 207 211 216 223 231 232 228
265 272 302 313 309 283 253 260 251 149 129 121 95 70 50 24 31 24 14 5 355 346 18 13 354 348 327 237 218 216 210 210 215 208 207 205 209 213 218 220 225 229 234 225
270 283 291 289 288 285 201 125 113 111 98 86 76 60 52 44 21 355 351 350 358 88 37 11 2 339 332 305 253 235 218 213 214 221 211 212 217 218 219 224 228 232 236 233
332 355 359 354 349 85 142 118 99 88 75 59 61 59 60 52 27 4 354 23 16 8 2 352 349 349 353 355 317 259 234 224 221 226 223 222 229 224 225 227 232 232 232 227
352 29 40 39 53 82 88 77 78 70 45 45 60 63 42 22 3 351 9 62 36 2 335 348 353 353 348 339 342 309 265 254 242 233 230 229 228 231 229 232 234 236 234 232
33 45 54 64 68 62 63 61 68 58 38 35 38 38 22 11 3 344 314 306 29 0 345 347 355 355 341 331 344 334 316 276 262 254 246 243 244 242 240 239 237 237 239 238
53 64 66 71 68 61 51 46 55 64 58 52 44 23 355 352 347 341 43 25 343 353 343 348 354 348 344 343 337 337 335 323 302 284 270 260 254 254 252 249 247 244 241 242
63 29 8 324 347 345 4 12 12 7 8 336 309 334 338 332 329 320 309 44 344 348 337 340 347 342 344 350 347 342 333 332 328 325 314 302 289 279 275 272 265 257 254 251
144 338 334 327 310 275 279 253 257 275 274 262 255 251 265 272 234 212 314 319 324 332 321 328 334 337 345 348 342 338 332 333 335 329 320 313 305 301 294 286 282 276 271 270
265 285 292 286 280 267 256 242 231 240 242 251 250 242 238 241 247 324 302 304 310 320 318 326 334 342 347 340 334 331 328 326 327 322 319 317 315 312 307 301 293 287 283 283
262 269 270 271 270 275 261 242 251 238 229 249 248 234 226 225 241 259 266 277 292 305 309 317 323 329 326 323 320 318 316 315 314 311 307 302 299 298 296 295 294 293 290 287
266 261 264 263 255 249 246 245 251 256 239 237 251 232 222 222 234 248 258 271 275 284 291 295 301 306 304 304 304 301 299 296 298 297 295 292 291 287 286 286 289 291 292 288